Columbus AFB, MS

4:52 PM CDT on April 25, 2017 (GMT -0500)
Columbus Air Force Base

Weather History for KCBM - March, 2014

Change the Weather History Date:

Wednesday, March 19, 2014

  Actual Average Record
Temperature  
Mean Temperature 56 °F -  
Max Temperature 69 °F 65 °F 83 °F (2012)
Min Temperature 43 °F 44 °F 37 °F (2013)
Degree Days  
Heating Degree Days 10    
Growing Degree Days 6 (Base 50)    
Moisture  
Dew Point 47 °F    
Average Humidity 79    
Maximum Humidity 100    
Minimum Humidity 51    
Precipitation  
Precipitation 0.00 in - - ()
Sea Level Pressure  
Sea Level Pressure 30.05 in    
Wind  
Wind Speed 8 mph (SSW)    
Max Wind Speed 13 mph    
Max Gust Speed 18 mph    
Visibility 10 miles    
Events Rain    
Averages and records for this station are not official NWS values.
T = Trace of Precipitation, MM = Missing Value Source: NWS Daily Summary

Daily Weather History Graph

Daily Weather History Graph

Search for Another Location

Airport or City:

Trip Planner

Search our weather history database for the weather conditions in past years. The results will help you decide how hot, cold, wet, or windy it might be!

Date:

Astronomy

Mar. 19, 2014 Rise Set
Actual Time 6:58 AM CDT 7:04 PM CDT
Civil Twilight 6:34 AM CDT 7:29 PM CDT
Nautical Twilight 6:05 AM CDT 7:58 PM CDT
Astronomical Twilight 5:35 AM CDT 8:27 PM CDT
Moon 10:12 PM CDT (3/19) 8:33 AM CDT (3/19)
Length of Visible Light 12h 55m
Length of Day
12h 05m
Waning Gibbous, 91% of the Moon is Illuminated
Mar 19
Waning Gibbous
Mar 23
Last Quarter
Mar 30
New
Apr 7
First Quarter
Apr 15
Full

Hourly Weather History & Observations

Time (CDT) Temp. Windchill Dew Point Humidity Pressure Visibility Wind Dir Wind Speed Gust Speed Precip Events Conditions
12:58 AM 45.0 °F 41.2 °F 43.2 °F 93% 29.99 in 10.0 mi SSE 6.9 mph - N/A   Clear
1:58 AM 43.5 °F 38.3 °F 42.4 °F 96% 29.99 in 10.0 mi SE 9.2 mph - N/A   Clear
2:58 AM 45.9 °F 40.0 °F 45.3 °F 98% 29.97 in 10.0 mi SSE 12.7 mph - N/A   Clear
3:58 AM 45.3 °F 42.3 °F 43.7 °F 94% 30.01 in 10.0 mi South 5.8 mph - N/A   Clear
4:58 AM 45.9 °F 42.9 °F 45.1 °F 97% 30.03 in 10.0 mi South 5.8 mph - N/A   Clear
5:33 AM 46.4 °F 42.9 °F 44.6 °F 93% 30.02 in 10.0 mi South 6.9 mph - N/A   Scattered Clouds
5:38 AM 46.4 °F 42.4 °F 44.6 °F 93% 30.02 in 10.0 mi South 8.1 mph - N/A   Mostly Cloudy
5:48 AM 46.4 °F 42.4 °F 46.4 °F 100% 30.03 in 10.0 mi South 8.1 mph - N/A   Mostly Cloudy
5:58 AM 46.8 °F - 45.7 °F 96% 30.04 in 10.0 mi South 9.2 mph - N/A   Overcast
6:03 AM 46.4 °F 41.5 °F 44.6 °F 93% 30.04 in 10.0 mi South 10.4 mph - N/A   Overcast
6:38 AM 46.4 °F 41.5 °F 46.4 °F 100% 30.03 in 10.0 mi South 10.4 mph - N/A   Overcast
6:43 AM 46.4 °F 41.9 °F 46.4 °F 100% 30.04 in 10.0 mi SSW 9.2 mph - N/A   Overcast
6:58 AM 46.9 °F - 45.7 °F 95% 30.05 in 10.0 mi South 9.2 mph - N/A   Overcast
7:08 AM 46.4 °F 41.5 °F 46.4 °F 100% 30.04 in 10.0 mi South 10.4 mph - N/A   Overcast
7:13 AM 48.2 °F - 46.4 °F 93% 30.04 in 10.0 mi South 8.1 mph - N/A   Overcast
7:18 AM 48.2 °F - 46.4 °F 93% 30.04 in 10.0 mi South 9.2 mph - N/A   Overcast
7:19 AM 48.2 °F - 46.4 °F 93% 30.04 in 10.0 mi South 9.2 mph - N/A   Overcast
7:24 AM 48.2 °F - 46.4 °F 93% 30.04 in 10.0 mi South 10.4 mph - N/A   Overcast
7:31 AM 48.2 °F - 46.4 °F 93% 30.04 in 9.0 mi South 9.2 mph - N/A   Overcast
7:58 AM 47.7 °F - 46.0 °F 94% 30.05 in 8.0 mi South 5.8 mph - N/A   Overcast
8:48 AM 48.2 °F - 46.4 °F 93% 30.05 in 10.0 mi South 9.2 mph - N/A   Overcast
8:49 AM 48.2 °F - 46.4 °F 93% 30.05 in 10.0 mi South 9.2 mph - N/A   Overcast
8:58 AM 48.7 °F - 46.4 °F 92% 30.06 in 10.0 mi South 8.1 mph - N/A   Overcast
9:58 AM 50.4 °F - 47.1 °F 89% 30.07 in 10.0 mi South 9.2 mph - N/A   Overcast
10:08 AM 51.8 °F - 46.4 °F 82% 30.06 in 10.0 mi South 8.1 mph - N/A   Overcast
10:58 AM 52.2 °F - 47.3 °F 83% 30.08 in 10.0 mi South 9.2 mph - N/A   Overcast
11:58 AM 54.1 °F - 48.0 °F 80% 30.08 in 10.0 mi SSW 10.4 mph - N/A   Overcast
12:58 PM 58.1 °F - 49.8 °F 74% 30.08 in 10.0 mi South 5.8 mph - N/A   Overcast
1:31 PM 60.8 °F - 50.0 °F 68% 30.06 in 10.0 mi South 6.9 mph - N/A   Overcast
1:58 PM 60.8 °F - 51.1 °F 70% 30.06 in 10.0 mi South 8.1 mph - N/A   Overcast
2:13 PM 62.6 °F - 51.8 °F 68% 30.04 in 10.0 mi SSW 9.2 mph - N/A   Overcast
2:18 PM 62.6 °F - 51.8 °F 68% 30.04 in 10.0 mi SSW 9.2 mph - N/A   Overcast
2:23 PM 62.6 °F - 51.8 °F 68% 30.04 in 10.0 mi SW 6.9 mph - N/A   Overcast
2:33 PM 64.4 °F - 51.8 °F 64% 30.04 in 10.0 mi SSW 12.7 mph 18.4 mph N/A   Mostly Cloudy
2:53 PM 64.4 °F - 51.8 °F 64% 30.03 in 10.0 mi SSW 9.2 mph - N/A   Mostly Cloudy
2:58 PM 64.4 °F - 51.8 °F 64% 30.04 in 10.0 mi SSW 10.4 mph - N/A   Mostly Cloudy
3:03 PM 66.2 °F - 51.8 °F 60% 30.03 in 10.0 mi SSW 10.4 mph - N/A   Mostly Cloudy
3:18 PM 66.2 °F - 51.8 °F 60% 30.02 in 10.0 mi South 8.1 mph - N/A   Mostly Cloudy
3:58 PM 68.0 °F - 50.9 °F 54% 30.03 in 10.0 mi SW 12.7 mph - N/A   Mostly Cloudy
4:03 PM 68.0 °F - 50.0 °F 52% 30.02 in 10.0 mi WSW 8.1 mph - N/A   Scattered Clouds
4:58 PM 68.2 °F - 49.3 °F 51% 30.03 in 10.0 mi SW 11.5 mph - N/A   Scattered Clouds
5:58 PM 68.2 °F - 49.5 °F 51% 30.03 in 10.0 mi WSW 8.1 mph - N/A   Clear
6:58 PM 62.8 °F - 49.5 °F 62% 30.04 in 10.0 mi SW 4.6 mph - N/A   Clear
7:33 PM 57.2 °F - 48.2 °F 72% 30.04 in 10.0 mi SSW 2.3 mph - N/A   Partly Cloudy
7:37 PM 57.2 °F - 48.2 °F 72% 30.04 in 10.0 mi SSW 2.3 mph - N/A Rain Light Rain
7:38 PM 57.2 °F - 48.2 °F 72% 30.05 in 10.0 mi SSW 2.3 mph - N/A   Partly Cloudy
7:58 PM 57.2 °F - 48.2 °F 72% 30.07 in 10.0 mi West 8.1 mph - 0.00 in   Mostly Cloudy
8:18 PM 59.0 °F - 42.8 °F 55% 30.07 in 10.0 mi WNW 10.4 mph - N/A   Scattered Clouds
8:58 PM 55.9 °F - 39.7 °F 55% 30.10 in 10.0 mi WNW 9.2 mph - N/A   Clear
9:58 PM 53.4 °F - 38.8 °F 58% 30.12 in 10.0 mi WNW 6.9 mph - N/A   Clear
10:58 PM 52.2 °F - 39.0 °F 61% 30.14 in 10.0 mi NW 6.9 mph - N/A   Clear
11:58 PM 49.6 °F - 38.8 °F 66% 30.13 in 10.0 mi NNW 8.1 mph - N/A   Clear